Flag for Turkey Weather past 2 weeks in Samsun, Turkey

Now
72 °F

Passing clouds.


Feels Like: 74 °F
Forecast: 57 / 83 °F
Wind: 3 mph from Southeast

Location: Samsun / Carsamba

Current Time: Sep 1, 2015 at 9:53:08 AM

Latest Report: Sep 1, 2015 at 8:50 AM


Visibility: N/A

Pressure: 30.09 "Hg

Humidity: 73%

Dew point: 63 °F

Location of SamsunLocation

Historic Weather in Samsun — Graph

°F

Samsun temperature yesterday

Maximum temperature yesterday: 79 °F (at 11:50 AM)
Minimum temperature yesterday: 63 °F (at 4:50 AM)
Average temperature yesterday: 71 °F

Past Weeks' High & Low Weather Summary

 TemperatureHumidityPressure
High86 °F (Aug 17, 3:50 PM)100% (Aug 18, 4:50 AM)30.12 "Hg (Aug 18, 4:50 AM)
Low57 °F (Sep 1, 2:50 AM)48% (Aug 24, 10:50 AM)29.74 "Hg (Aug 18, 3:50 AM)
Average75 °F76%29.95 "Hg
* Reported Aug 17 8:50 AM — Sep 1 8:50 AM, Samsun, Weather by CustomWeather, © 2015

Note: Actual official high and low records may vary slightly from our data, if they occured in-between our weather recording intervals... More about our weather records

Advertising

Samsun weather history for previous 24 hours

 ConditionsComfort  
Time TempWeatherWind HumidityBarometerVisibility
8:50 AM
Tue, Sep 1
72 °FPassing clouds.3 mph73%30.09 "HgN/A
7:50 AM64 °FSunny.5 mph94%30.09 "Hg10 mi
6:50 AM59 °FClear.5 mph94%30.09 "Hg10 mi
5:50 AM57 °FClear.3 mph94%30.09 "Hg10 mi
4:50 AM59 °FClear.3 mph94%30.09 "Hg10 mi
3:50 AM59 °FClear.2 mph94%30.09 "Hg10 mi
2:50 AM57 °FClear.5 mph100%30.09 "Hg10 mi
1:50 AM59 °FClear.5 mph94%30.09 "Hg10 mi
12:50 AM61 °FClear.3 mph94%30.09 "Hg10 mi
11:50 PM
Mon, Aug 31
63 °FClear.2 mph94%30.09 "Hg10 mi
10:50 PM63 °FClear.3 mph88%30.09 "Hg10 mi
9:50 PM64 °FClear.No wind88%30.12 "Hg10 mi
8:50 PM64 °FClear.No wind88%30.12 "Hg10 mi
7:50 PM72 °FSunny.3 mph69%30.09 "Hg10 mi
6:50 PM75 °FPassing clouds.5 mph61%30.09 "HgN/A
5:50 PM77 °FPassing clouds.7 mph57%30.09 "HgN/A
4:50 PM79 °FPassing clouds.10 mph51%30.12 "HgN/A
3:50 PM79 °FPassing clouds.10 mph54%30.12 "HgN/A
2:50 PM79 °FPassing clouds.12 mph54%30.12 "HgN/A
1:50 PM79 °FPassing clouds.9 mph51%30.12 "HgN/A
12:50 PM79 °FPassing clouds.10 mph48%30.12 "HgN/A
11:50 AM79 °FPassing clouds.8 mph54%30.12 "HgN/A
10:50 AM77 °FPassing clouds.9 mph61%30.12 "HgN/A
9:50 AM77 °FScattered clouds.9 mph61%30.12 "HgN/A
Weather by CustomWeather, © 2015

See weather overviewHow to use our weather pages